N1496D PAJN-CAB5

Flight info

Callsign N1496D
Flight time N/A
Altitude 5500
Route VFR SE
Aircraft GABR/L-VGD/C

Departure

Time 2026-05-06 02:03
Airport Juneau International Airport (PAJN)

Arrival

Time N/A
Airport Abbotsford (Regional Hospital & Cancer Centre) Heliport (CAB5)
Time Latitude Longitude Altitude Speed Heading
2026-05-06 01:54 58.35889 -134.58960 27 ft 0 kts 104°
2026-05-06 01:58 58.35874 -134.58977 27 ft 4 kts 224°
2026-05-06 01:58 58.35827 -134.59039 27 ft 14 kts 175°
2026-05-06 01:58 58.35771 -134.58815 27 ft 22 kts 97°
2026-05-06 01:59 58.35729 -134.58502 26 ft 26 kts 107°
2026-05-06 01:59 58.35681 -134.58151 26 ft 29 kts 105°
2026-05-06 01:59 58.35631 -134.57778 26 ft 30 kts 104°
2026-05-06 01:59 58.35576 -134.57394 26 ft 31 kts 106°
2026-05-06 02:00 58.35521 -134.57008 26 ft 28 kts 105°
2026-05-06 02:00 58.35469 -134.56634 27 ft 30 kts 106°
2026-05-06 02:00 58.35416 -134.56253 26 ft 28 kts 103°
2026-05-06 02:00 58.35366 -134.55885 25 ft 30 kts 104°
2026-05-06 02:01 58.35316 -134.55527 27 ft 24 kts 104°
2026-05-06 02:01 58.35263 -134.55344 25 ft 16 kts 173°
2026-05-06 02:01 58.35251 -134.55347 25 ft 0 kts 203°
2026-05-06 02:02 58.35250 -134.55348 25 ft 2 kts 202°
2026-05-06 02:02 58.35198 -134.55391 27 ft 12 kts 212°
2026-05-06 02:02 58.35203 -134.55531 23 ft 1 kts 290°
2026-05-06 02:02 58.35208 -134.55562 23 ft 24 kts 284°
2026-05-06 02:03 58.35317 -134.56340 115 ft 83 kts 283°
2026-05-06 02:03 58.35468 -134.57456 227 ft 93 kts 281°
2026-05-06 02:03 58.35657 -134.58672 438 ft 98 kts 283°
2026-05-06 02:03 58.35877 -134.59938 657 ft 106 kts 285°
2026-05-06 02:04 58.36134 -134.61240 901 ft 105 kts 287°
2026-05-06 02:04 58.36417 -134.62591 1111 ft 114 kts 288°
2026-05-06 02:04 58.36715 -134.64014 1317 ft 116 kts 288°
2026-05-06 02:04 58.37018 -134.65466 1521 ft 119 kts 287°
2026-05-06 02:05 58.37329 -134.66926 1711 ft 119 kts 287°
2026-05-06 02:05 58.37651 -134.68398 1895 ft 119 kts 285°
2026-05-06 02:05 58.37542 -134.69833 2071 ft 113 kts 229°
2026-05-06 02:05 58.36817 -134.70393 2268 ft 115 kts 196°
2026-05-06 02:06 58.36030 -134.70475 2497 ft 120 kts 164°
2026-05-06 02:06 58.35514 -134.69205 2724 ft 131 kts 109°
2026-05-06 02:06 58.35322 -134.67510 2962 ft 131 kts 108°
2026-05-06 02:06 58.35108 -134.65825 3199 ft 131 kts 108°
2026-05-06 02:07 58.34895 -134.64134 3411 ft 132 kts 108°
2026-05-06 02:07 58.34680 -134.62437 3616 ft 131 kts 108°
2026-05-06 02:07 58.34461 -134.60762 3820 ft 130 kts 108°
2026-05-06 02:07 58.34242 -134.59104 4029 ft 129 kts 108°
2026-05-06 02:08 58.34024 -134.57444 4233 ft 129 kts 108°
2026-05-06 02:08 58.33811 -134.55789 4446 ft 129 kts 108°
2026-05-06 02:08 58.33599 -134.54137 4654 ft 128 kts 108°
2026-05-06 02:08 58.33387 -134.52492 4863 ft 128 kts 108°
2026-05-06 02:09 58.33183 -134.50843 5069 ft 128 kts 108°
2026-05-06 02:09 58.32979 -134.49202 5272 ft 127 kts 108°
2026-05-06 02:09 58.32708 -134.47643 5476 ft 123 kts 127°
2026-05-06 02:09 58.32129 -134.46510 5685 ft 119 kts 144°
2026-05-06 02:10 58.31510 -134.45468 5893 ft 118 kts 146°
2026-05-06 02:10 58.30889 -134.44453 6101 ft 117 kts 146°
2026-05-06 02:10 58.30266 -134.43450 6314 ft 117 kts 147°
2026-05-06 02:10 58.29653 -134.42414 6532 ft 119 kts 143°
2026-05-06 02:11 58.29043 -134.41327 6727 ft 122 kts 144°
2026-05-06 02:11 58.28418 -134.40221 6930 ft 123 kts 144°
2026-05-06 02:11 58.27794 -134.39112 7126 ft 122 kts 144°
2026-05-06 02:11 58.27176 -134.38016 7325 ft 120 kts 145°
2026-05-06 02:12 58.26571 -134.36939 7505 ft 120 kts 145°
2026-05-06 02:12 58.25927 -134.35804 7513 ft 130 kts 144°
2026-05-06 02:12 58.25271 -134.34634 7513 ft 129 kts 144°
2026-05-06 02:12 58.24618 -134.33476 7516 ft 129 kts 144°
2026-05-06 02:13 58.23956 -134.32307 7522 ft 132 kts 145°
2026-05-06 02:13 58.23281 -134.31113 7519 ft 133 kts 144°
2026-05-06 02:13 58.22610 -134.29923 7517 ft 132 kts 144°
2026-05-06 02:13 58.21939 -134.28738 7517 ft 132 kts 144°
2026-05-06 02:14 58.21269 -134.27557 7511 ft 131 kts 144°
2026-05-06 02:14 58.20604 -134.26384 7512 ft 130 kts 144°
2026-05-06 02:14 58.19940 -134.25213 7513 ft 130 kts 145°
2026-05-06 02:14 58.19239 -134.24160 7512 ft 128 kts 151°
2026-05-06 02:15 58.18525 -134.23140 7509 ft 129 kts 150°
2026-05-06 02:15 58.17810 -134.22115 7510 ft 129 kts 150°
2026-05-06 02:15 58.17095 -134.21091 7511 ft 129 kts 150°
2026-05-06 02:15 58.16377 -134.20063 7503 ft 129 kts 150°
2026-05-06 02:16 58.15904 -134.19384 7503 ft 129 kts 151°
2026-05-06 02:16 58.14947 -134.18014 7500 ft 128 kts 150°
2026-05-06 02:16 58.14476 -134.17338 7502 ft 128 kts 150°
2026-05-06 02:16 58.13761 -134.16319 7500 ft 129 kts 150°
2026-05-06 02:17 58.13046 -134.15297 7503 ft 129 kts 150°
2026-05-06 02:17 58.12094 -134.13937 7497 ft 129 kts 150°
2026-05-06 02:17 58.11609 -134.13244 7497 ft 129 kts 150°
2026-05-06 02:17 58.10892 -134.12221 7498 ft 130 kts 150°
2026-05-06 02:18 58.10181 -134.11206 7496 ft 130 kts 150°
2026-05-06 02:18 58.09454 -134.10169 7490 ft 129 kts 150°
2026-05-06 02:18 58.08738 -134.09150 7492 ft 129 kts 150°
2026-05-06 02:18 58.08018 -134.08124 7492 ft 129 kts 150°
2026-05-06 02:19 58.07310 -134.07117 7492 ft 129 kts 150°
2026-05-06 02:19 58.06593 -134.06096 7496 ft 129 kts 150°
2026-05-06 02:19 58.05874 -134.05075 7494 ft 129 kts 150°
2026-05-06 02:19 58.05153 -134.04049 7492 ft 130 kts 150°
2026-05-06 02:20 58.03712 -134.02002 7492 ft 130 kts 150°
2026-05-06 02:20 58.02990 -134.00977 7492 ft 130 kts 150°
2026-05-06 02:20 58.02265 -133.99949 7493 ft 130 kts 149°
2026-05-06 02:21 58.01541 -133.98922 7490 ft 130 kts 149°
2026-05-06 02:21 58.00819 -133.97899 7492 ft 130 kts 150°
2026-05-06 02:21 58.00096 -133.96875 7494 ft 130 kts 150°
2026-05-06 02:21 57.99375 -133.95854 7492 ft 130 kts 150°
2026-05-06 02:22 57.98654 -133.94835 7492 ft 130 kts 150°
2026-05-06 02:22 57.97930 -133.93812 7492 ft 130 kts 150°
2026-05-06 02:22 57.97218 -133.92805 7489 ft 129 kts 150°
2026-05-06 02:22 57.96491 -133.91828 7491 ft 128 kts 151°
2026-05-06 02:23 57.95770 -133.90843 7491 ft 128 kts 150°
2026-05-06 02:23 57.95048 -133.89862 7491 ft 128 kts 150°
2026-05-06 02:23 57.94327 -133.88885 7489 ft 128 kts 150°
2026-05-06 02:23 57.93605 -133.87911 7487 ft 128 kts 151°
2026-05-06 02:24 57.92885 -133.86939 7484 ft 127 kts 151°
2026-05-06 02:24 57.92165 -133.85969 7490 ft 127 kts 151°
2026-05-06 02:24 57.91447 -133.85001 7492 ft 127 kts 151°
2026-05-06 02:24 57.90726 -133.84031 7488 ft 128 kts 151°
2026-05-06 02:25 57.90004 -133.83059 7489 ft 128 kts 151°
2026-05-06 02:25 57.89282 -133.82088 7492 ft 128 kts 150°
2026-05-06 02:25 57.88557 -133.81114 7492 ft 128 kts 150°
2026-05-06 02:25 57.87835 -133.80144 7488 ft 128 kts 151°
2026-05-06 02:26 57.87112 -133.79173 7488 ft 128 kts 151°
2026-05-06 02:26 57.86388 -133.78201 7491 ft 128 kts 151°
2026-05-06 02:26 57.85664 -133.77230 7491 ft 128 kts 150°
2026-05-06 02:26 57.84940 -133.76258 7490 ft 128 kts 150°
2026-05-06 02:27 57.84215 -133.75288 7489 ft 128 kts 150°
2026-05-06 02:27 57.83490 -133.74316 7492 ft 128 kts 150°
2026-05-06 02:27 57.82760 -133.73340 7492 ft 130 kts 150°
2026-05-06 02:27 57.82021 -133.72352 7496 ft 131 kts 150°
2026-05-06 02:28 57.81279 -133.71359 7492 ft 131 kts 150°
2026-05-06 02:28 57.80535 -133.70364 7493 ft 131 kts 150°
2026-05-06 02:28 57.79801 -133.69384 7498 ft 131 kts 150°
2026-05-06 02:28 57.79060 -133.68393 7500 ft 131 kts 150°
2026-05-06 02:29 57.78308 -133.67390 7492 ft 131 kts 150°
2026-05-06 02:29 57.77573 -133.66405 7494 ft 130 kts 150°
2026-05-06 02:29 57.76847 -133.65439 7493 ft 129 kts 151°
2026-05-06 02:29 57.76039 -133.64848 7495 ft 124 kts 176°
2026-05-06 02:30 57.75184 -133.64662 7492 ft 123 kts 176°
2026-05-06 02:30 57.74335 -133.64452 7492 ft 123 kts 177°
2026-05-06 02:30 57.73484 -133.64243 7491 ft 123 kts 177°
2026-05-06 02:30 57.72636 -133.64038 7492 ft 123 kts 177°
2026-05-06 02:31 57.71787 -133.63833 7493 ft 123 kts 177°
2026-05-06 02:31 57.70942 -133.63629 7491 ft 122 kts 176°
2026-05-06 02:31 57.70102 -133.63426 7500 ft 123 kts 177°
2026-05-06 02:31 57.69261 -133.63222 7498 ft 122 kts 177°
2026-05-06 02:32 57.68417 -133.63018 7502 ft 123 kts 176°
2026-05-06 02:32 57.67562 -133.62813 7505 ft 125 kts 176°
2026-05-06 02:32 57.66699 -133.62604 7504 ft 125 kts 176°
2026-05-06 02:32 57.65843 -133.62399 7505 ft 124 kts 176°
2026-05-06 02:33 57.64991 -133.62192 7501 ft 123 kts 176°
2026-05-06 02:33 57.64417 -133.62054 7503 ft 124 kts 177°
2026-05-06 02:33 57.62460 -133.61582 7500 ft 118 kts 177°
2026-05-06 02:34 57.61647 -133.61387 7501 ft 118 kts 177°
2026-05-06 02:34 57.60826 -133.61191 7498 ft 119 kts 177°
2026-05-06 02:34 57.59996 -133.60992 7500 ft 121 kts 177°
2026-05-06 02:34 57.59151 -133.60790 7498 ft 122 kts 176°
2026-05-06 02:35 57.58310 -133.60586 7502 ft 122 kts 176°
2026-05-06 02:35 57.57457 -133.60383 7507 ft 125 kts 176°
2026-05-06 02:35 57.56594 -133.60175 7504 ft 124 kts 176°
2026-05-06 02:35 57.55739 -133.59969 7504 ft 124 kts 176°
2026-05-06 02:36 57.54883 -133.59764 7505 ft 124 kts 176°
2026-05-06 02:36 57.54026 -133.59558 7506 ft 124 kts 176°
2026-05-06 02:36 57.53168 -133.59353 7506 ft 124 kts 176°
2026-05-06 02:36 57.52309 -133.59148 7506 ft 124 kts 176°
2026-05-06 02:37 57.51454 -133.58943 7504 ft 124 kts 176°
2026-05-06 02:37 57.50593 -133.58737 7504 ft 124 kts 176°
2026-05-06 02:37 57.49734 -133.58549 7506 ft 124 kts 179°
2026-05-06 02:37 57.48871 -133.58410 7505 ft 125 kts 178°
2026-05-06 02:38 57.48009 -133.58258 7504 ft 124 kts 178°
2026-05-06 02:38 57.47148 -133.58109 7504 ft 124 kts 178°
2026-05-06 02:38 57.46288 -133.57961 7506 ft 124 kts 178°
2026-05-06 02:38 57.45424 -133.57815 7505 ft 124 kts 178°
2026-05-06 02:39 57.44564 -133.57669 7504 ft 124 kts 178°
2026-05-06 02:39 57.43704 -133.57523 7506 ft 124 kts 178°
2026-05-06 02:39 57.42847 -133.57378 7505 ft 124 kts 179°
2026-05-06 02:39 57.41990 -133.57233 7503 ft 124 kts 179°
2026-05-06 02:40 57.41132 -133.57087 7502 ft 124 kts 178°
2026-05-06 02:40 57.40277 -133.56943 7502 ft 123 kts 179°
2026-05-06 02:40 57.39422 -133.56798 7503 ft 123 kts 178°
2026-05-06 02:40 57.38568 -133.56654 7500 ft 123 kts 178°
2026-05-06 02:41 57.37718 -133.56510 7505 ft 123 kts 178°
2026-05-06 02:41 57.36867 -133.56366 7504 ft 123 kts 178°
2026-05-06 02:41 57.36018 -133.56222 7500 ft 122 kts 178°
2026-05-06 02:41 57.35170 -133.56079 7502 ft 122 kts 178°
2026-05-06 02:42 57.34326 -133.55937 7499 ft 122 kts 178°
2026-05-06 02:42 57.33480 -133.55794 7500 ft 122 kts 178°
2026-05-06 02:42 57.32637 -133.55652 7501 ft 121 kts 178°
2026-05-06 02:42 57.31794 -133.55509 7502 ft 121 kts 178°
2026-05-06 02:43 57.30954 -133.55367 7502 ft 122 kts 178°
2026-05-06 02:43 57.30108 -133.55225 7503 ft 122 kts 178°
2026-05-06 02:43 57.29267 -133.55083 7501 ft 122 kts 178°
2026-05-06 02:43 57.28421 -133.54941 7502 ft 122 kts 178°
2026-05-06 02:44 57.27587 -133.54800 7505 ft 122 kts 178°
2026-05-06 02:44 57.26743 -133.54658 7505 ft 122 kts 178°
2026-05-06 02:44 57.25896 -133.54516 7505 ft 122 kts 178°
2026-05-06 02:44 57.25051 -133.54373 7506 ft 122 kts 178°
2026-05-06 02:45 57.24211 -133.54192 7506 ft 123 kts 169°
2026-05-06 02:45 57.23421 -133.53544 7508 ft 125 kts 158°
2026-05-06 02:45 57.22627 -133.52862 7514 ft 126 kts 159°
2026-05-06 02:45 57.21830 -133.52179 7512 ft 126 kts 159°
2026-05-06 02:46 57.21032 -133.51495 7508 ft 126 kts 159°
2026-05-06 02:46 57.20238 -133.50812 7510 ft 126 kts 159°
2026-05-06 02:46 57.19446 -133.50134 7511 ft 125 kts 159°
2026-05-06 02:46 57.18654 -133.49454 7512 ft 126 kts 159°
2026-05-06 02:47 57.17859 -133.48773 7514 ft 126 kts 159°
2026-05-06 02:47 57.17062 -133.48088 7514 ft 127 kts 159°
2026-05-06 02:47 57.16262 -133.47403 7517 ft 127 kts 159°
2026-05-06 02:47 57.15468 -133.46694 7512 ft 128 kts 152°
2026-05-06 02:48 57.14860 -133.45481 7511 ft 133 kts 123°
2026-05-06 02:48 57.14510 -133.43891 7511 ft 134 kts 116°
2026-05-06 02:48 57.14165 -133.42305 7509 ft 133 kts 116°
2026-05-06 02:48 57.13820 -133.40722 7512 ft 134 kts 116°
2026-05-06 02:49 57.13472 -133.39133 7509 ft 134 kts 116°
2026-05-06 02:49 57.13125 -133.37545 7509 ft 134 kts 116°
2026-05-06 02:49 57.12776 -133.35947 7509 ft 135 kts 116°
2026-05-06 02:49 57.12427 -133.34349 7507 ft 134 kts 116°
2026-05-06 02:50 57.12078 -133.32757 7504 ft 134 kts 116°
2026-05-06 02:50 57.11730 -133.31166 7504 ft 133 kts 116°
2026-05-06 02:50 57.11382 -133.29580 7509 ft 134 kts 116°
2026-05-06 02:50 57.11037 -133.28008 7507 ft 134 kts 116°
2026-05-06 02:51 57.10683 -133.26395 7504 ft 134 kts 116°
2026-05-06 02:51 57.10340 -133.24836 7503 ft 133 kts 116°
2026-05-06 02:51 57.09990 -133.23247 7503 ft 132 kts 116°
2026-05-06 02:51 57.09644 -133.21673 7502 ft 132 kts 116°
2026-05-06 02:52 57.09298 -133.20102 7505 ft 132 kts 116°
2026-05-06 02:52 57.08944 -133.18567 7502 ft 131 kts 123°
2026-05-06 02:52 57.08393 -133.17220 7504 ft 130 kts 132°
2026-05-06 02:52 57.07847 -133.15913 7503 ft 131 kts 131°
2026-05-06 02:53 57.07294 -133.14584 7505 ft 131 kts 131°
2026-05-06 02:53 57.06741 -133.13259 7502 ft 131 kts 131°
2026-05-06 02:53 57.06186 -133.11930 7503 ft 131 kts 131°
2026-05-06 02:53 57.05631 -133.10599 7504 ft 132 kts 132°
2026-05-06 02:54 57.05075 -133.09268 7507 ft 132 kts 132°
2026-05-06 02:54 57.04517 -133.07931 7506 ft 132 kts 132°
2026-05-06 02:54 57.03956 -133.06589 7507 ft 132 kts 132°
2026-05-06 02:54 57.03395 -133.05248 7510 ft 133 kts 132°
2026-05-06 02:55 57.02832 -133.03902 7507 ft 133 kts 132°
2026-05-06 02:55 57.02267 -133.02554 7510 ft 133 kts 132°
2026-05-06 02:55 57.01704 -133.01212 7509 ft 133 kts 132°
2026-05-06 02:55 57.01139 -132.99862 7512 ft 133 kts 132°
2026-05-06 02:56 57.00573 -132.98512 7507 ft 134 kts 132°
2026-05-06 02:56 57.00003 -132.97156 7511 ft 134 kts 132°
2026-05-06 02:56 56.99430 -132.95801 7510 ft 134 kts 134°
2026-05-06 02:56 56.98696 -132.94830 7510 ft 129 kts 163°
2026-05-06 02:57 56.97838 -132.94360 7513 ft 129 kts 167°
2026-05-06 02:57 56.96979 -132.93876 7512 ft 129 kts 167°
2026-05-06 02:57 56.96125 -132.93397 7514 ft 129 kts 167°
2026-05-06 02:57 56.95266 -132.92916 7514 ft 129 kts 167°
2026-05-06 02:58 56.94419 -132.92443 7510 ft 129 kts 167°
2026-05-06 02:58 56.93552 -132.91960 7516 ft 129 kts 167°
2026-05-06 02:58 56.92704 -132.91488 7513 ft 129 kts 167°
2026-05-06 02:58 56.91846 -132.91010 7513 ft 129 kts 167°
2026-05-06 02:59 56.90988 -132.90533 7514 ft 129 kts 167°
2026-05-06 02:59 56.90132 -132.90057 7513 ft 129 kts 167°
2026-05-06 02:59 56.89272 -132.89579 7516 ft 129 kts 167°
2026-05-06 02:59 56.88412 -132.89101 7512 ft 129 kts 167°
2026-05-06 03:00 56.87555 -132.88625 7514 ft 129 kts 167°
2026-05-06 03:00 56.86694 -132.88147 7512 ft 129 kts 168°
2026-05-06 03:00 56.85837 -132.87671 7513 ft 129 kts 168°
2026-05-06 03:00 56.84977 -132.87194 7513 ft 129 kts 168°
2026-05-06 03:01 56.84160 -132.86487 7510 ft 134 kts 145°
2026-05-06 03:01 56.83538 -132.85211 7509 ft 135 kts 135°
2026-05-06 03:01 56.82926 -132.83907 7507 ft 135 kts 135°
2026-05-06 03:01 56.82520 -132.83044 7521 ft 135 kts 135°
2026-05-06 03:02 56.81906 -132.81737 7515 ft 136 kts 136°
2026-05-06 03:02 56.81293 -132.80433 7510 ft 136 kts 136°
2026-05-06 03:02 56.80676 -132.79121 7514 ft 136 kts 135°
2026-05-06 03:02 56.80058 -132.77808 7510 ft 136 kts 136°
2026-05-06 03:03 56.79443 -132.76499 7509 ft 136 kts 136°
2026-05-06 03:03 56.78825 -132.75186 7514 ft 136 kts 136°
2026-05-06 03:03 56.78207 -132.73874 7511 ft 136 kts 136°
2026-05-06 03:03 56.77589 -132.72563 7511 ft 136 kts 136°
2026-05-06 03:04 56.76972 -132.71255 7513 ft 136 kts 136°
2026-05-06 03:04 56.76353 -132.69944 7516 ft 136 kts 136°
2026-05-06 03:04 56.75734 -132.68633 7515 ft 136 kts 136°
2026-05-06 03:04 56.75117 -132.67325 7514 ft 136 kts 136°
2026-05-06 03:05 56.74498 -132.66015 7515 ft 136 kts 136°
2026-05-06 03:05 56.73879 -132.64707 7515 ft 136 kts 136°
2026-05-06 03:05 56.73263 -132.63404 7513 ft 136 kts 136°
2026-05-06 03:05 56.72643 -132.62094 7516 ft 136 kts 136°
2026-05-06 03:06 56.72030 -132.60802 7514 ft 136 kts 136°
2026-05-06 03:06 56.71405 -132.59483 7522 ft 136 kts 136°
2026-05-06 03:06 56.70787 -132.58179 7516 ft 136 kts 136°
2026-05-06 03:06 56.70169 -132.56877 7517 ft 136 kts 136°
2026-05-06 03:07 56.69580 -132.55555 7529 ft 138 kts 126°
2026-05-06 03:07 56.69327 -132.53847 7527 ft 144 kts 94°
2026-05-06 03:07 56.69361 -132.52003 7530 ft 144 kts 91°
2026-05-06 03:07 56.69386 -132.50210 7527 ft 144 kts 92°
2026-05-06 03:08 56.69411 -132.48386 7529 ft 145 kts 92°
2026-05-06 03:08 56.69435 -132.46548 7532 ft 145 kts 92°
2026-05-06 03:08 56.69466 -132.44725 7533 ft 143 kts 92°
2026-05-06 03:08 56.69484 -132.42892 7534 ft 146 kts 92°
2026-05-06 03:09 56.69507 -132.41038 7535 ft 147 kts 92°
2026-05-06 03:09 56.69530 -132.39179 7538 ft 147 kts 91°
2026-05-06 03:09 56.69555 -132.37322 7527 ft 144 kts 91°
2026-05-06 03:09 56.69577 -132.35519 7533 ft 142 kts 92°
2026-05-06 03:10 56.69598 -132.33747 7527 ft 139 kts 91°
2026-05-06 03:10 56.69620 -132.31978 7532 ft 140 kts 92°
2026-05-06 03:10 56.69641 -132.30194 7534 ft 143 kts 92°
2026-05-06 03:10 56.69663 -132.28365 7529 ft 145 kts 92°
2026-05-06 03:11 56.69722 -132.26534 7538 ft 146 kts 83°
2026-05-06 03:11 56.69898 -132.24708 7533 ft 147 kts 83°
2026-05-06 03:11 56.70064 -132.22885 7537 ft 147 kts 83°
2026-05-06 03:11 56.70232 -132.21034 7531 ft 149 kts 83°
2026-05-06 03:12 56.70400 -132.19179 7532 ft 148 kts 83°
2026-05-06 03:12 56.70566 -132.17335 7532 ft 147 kts 83°
2026-05-06 03:12 56.70731 -132.15500 7527 ft 147 kts 83°
2026-05-06 03:12 56.70896 -132.13665 7529 ft 147 kts 84°
2026-05-06 03:13 56.71058 -132.11851 7525 ft 147 kts 84°
2026-05-06 03:13 56.70985 -132.10048 7519 ft 142 kts 115°
2026-05-06 03:13 56.70574 -132.08432 7523 ft 141 kts 120°
2026-05-06 03:13 56.70167 -132.06811 7527 ft 141 kts 120°
2026-05-06 03:14 56.69755 -132.05179 7523 ft 141 kts 120°
2026-05-06 03:14 56.69345 -132.03560 7528 ft 140 kts 120°
2026-05-06 03:14 56.68939 -132.01953 7526 ft 140 kts 120°
2026-05-06 03:14 56.68531 -132.00345 7519 ft 140 kts 121°
2026-05-06 03:15 56.68125 -131.98744 7517 ft 140 kts 121°
2026-05-06 03:15 56.67716 -131.97135 7516 ft 140 kts 121°
2026-05-06 03:15 56.67310 -131.95531 7517 ft 140 kts 121°
2026-05-06 03:15 56.66930 -131.93902 7512 ft 142 kts 110°
2026-05-06 03:16 56.66942 -131.92081 7515 ft 148 kts 78°
2026-05-06 03:16 56.67312 -131.90333 7503 ft 148 kts 70°
2026-05-06 03:16 56.67688 -131.88585 7501 ft 148 kts 71°
2026-05-06 03:16 56.68062 -131.86833 7498 ft 149 kts 71°
2026-05-06 03:17 56.68426 -131.85130 7504 ft 149 kts 71°
2026-05-06 03:17 56.68798 -131.83389 7499 ft 150 kts 71°
2026-05-06 03:17 56.69179 -131.81606 7498 ft 148 kts 71°
2026-05-06 03:17 56.69431 -131.79843 7495 ft 145 kts 92°
2026-05-06 03:18 56.69460 -131.78011 7493 ft 145 kts 91°
2026-05-06 03:18 56.69508 -131.76154 7494 ft 145 kts 91°
2026-05-06 03:18 56.69555 -131.74327 7494 ft 145 kts 91°
2026-05-06 03:18 56.69602 -131.72483 7501 ft 147 kts 91°
2026-05-06 03:19 56.69648 -131.70638 7489 ft 147 kts 92°
2026-05-06 03:19 56.69692 -131.68812 7501 ft 144 kts 92°
2026-05-06 03:19 56.69738 -131.67007 7491 ft 142 kts 92°
2026-05-06 03:19 56.69781 -131.65228 7493 ft 141 kts 92°
2026-05-06 03:20 56.69868 -131.61572 7495 ft 147 kts 91°
2026-05-06 03:20 56.69910 -131.59789 7478 ft 137 kts 92°
2026-05-06 03:20 56.69949 -131.58020 7350 ft 140 kts 91°
2026-05-06 03:21 56.69989 -131.56253 7225 ft 142 kts 90°
2026-05-06 03:21 56.70032 -131.54458 7105 ft 141 kts 92°
2026-05-06 03:21 56.70072 -131.52687 6937 ft 139 kts 91°
2026-05-06 03:21 56.70114 -131.50916 6761 ft 141 kts 91°
2026-05-06 03:22 56.70156 -131.49138 6591 ft 139 kts 92°
2026-05-06 03:22 56.70197 -131.47377 6415 ft 140 kts 91°
2026-05-06 03:22 56.70238 -131.45616 6232 ft 138 kts 92°
2026-05-06 03:22 56.70276 -131.43886 6047 ft 134 kts 91°
2026-05-06 03:23 56.70312 -131.42241 5855 ft 127 kts 91°
2026-05-06 03:23 56.70348 -131.40657 5669 ft 125 kts 91°
2026-05-06 03:23 56.70383 -131.39106 5483 ft 123 kts 91°
2026-05-06 03:23 56.70417 -131.37558 5301 ft 121 kts 90°
2026-05-06 03:24 56.70450 -131.36055 5095 ft 118 kts 90°
2026-05-06 03:24 56.70483 -131.34567 4863 ft 118 kts 90°
2026-05-06 03:24 56.70515 -131.33071 4626 ft 118 kts 90°
2026-05-06 03:24 56.70549 -131.31570 4391 ft 119 kts 90°
2026-05-06 03:25 56.70582 -131.30067 4156 ft 119 kts 90°
2026-05-06 03:25 56.70519 -131.28606 3893 ft 115 kts 120°
2026-05-06 03:25 56.70000 -131.27556 3630 ft 112 kts 139°
2026-05-06 03:25 56.69475 -131.26507 3376 ft 114 kts 129°
2026-05-06 03:26 56.69035 -131.25327 3126 ft 112 kts 127°
2026-05-06 03:26 56.68605 -131.24174 2898 ft 108 kts 126°
2026-05-06 03:26 56.68195 -131.23032 2690 ft 106 kts 122°
2026-05-06 03:26 56.67847 -131.21931 2475 ft 96 kts 122°
2026-05-06 03:27 56.67521 -131.20875 2258 ft 96 kts 122°
2026-05-06 03:27 56.67216 -131.19862 2038 ft 88 kts 121°
2026-05-06 03:27 56.66925 -131.18940 1833 ft 78 kts 122°
2026-05-06 03:27 56.66656 -131.18018 1699 ft 88 kts 121°
2026-05-06 03:28 56.66355 -131.17014 1566 ft 91 kts 122°
2026-05-06 03:28 56.66071 -131.16020 1424 ft 86 kts 120°
2026-05-06 03:28 56.65845 -131.15114 1365 ft 72 kts 111°
2026-05-06 03:28 56.65837 -131.14186 1205 ft 76 kts 79°
2026-05-06 03:29 56.66045 -131.13329 1121 ft 72 kts 45°
2026-05-06 03:29 56.66358 -131.12596 1028 ft 75 kts 46°
2026-05-06 03:29 56.66711 -131.11852 952 ft 77 kts 45°
2026-05-06 03:29 56.67035 -131.11093 853 ft 75 kts 51°
2026-05-06 03:30 56.67334 -131.10293 694 ft 77 kts 51°
2026-05-06 03:30 56.67653 -131.09519 507 ft 75 kts 50°
2026-05-06 03:30 56.67946 -131.08842 407 ft 60 kts 48°
2026-05-06 03:30 56.68162 -131.08310 379 ft 44 kts 57°
2026-05-06 03:31 56.68290 -131.08009 365 ft 25 kts 32°
2026-05-06 03:31 56.68275 -131.08010 368 ft 11 kts 242°
2026-05-06 03:31 56.68227 -131.08150 371 ft 15 kts 233°
2026-05-06 03:31 56.68156 -131.08320 379 ft 17 kts 236°
2026-05-06 03:32 56.68084 -131.08495 387 ft 18 kts 232°
2026-05-06 03:32 56.68014 -131.08668 389 ft 16 kts 233°
2026-05-06 03:32 56.67945 -131.08839 404 ft 17 kts 235°
2026-05-06 03:32 56.67877 -131.09004 413 ft 17 kts 236°
2026-05-06 03:33 56.67812 -131.09183 420 ft 17 kts 230°
2026-05-06 03:33 56.67737 -131.09351 423 ft 15 kts 228°
2026-05-06 03:33 56.67686 -131.09432 429 ft 5 kts 248°
2026-05-06 03:33 56.67682 -131.09442 429 ft 0 kts 229°